Location: Newark
(48.1500°N, 13.1167°E)
Time: 22:23:00
(UTC+00:00)

N. Korean satellite - Pass Details

Date: 03 October 2021
Orbit: 450 x 495 km, 97.3° (Epoch: 21 October)

Event Time Altitude Azimuth Distance (km) Brightness Sun altitude
Rises 04:27:02 0° 13° (NNE) 2,554 10.4 -7.9°
Reaches altitude 10° 04:29:06 10° 15° (NNE) 1,676 9.5 -7.6°
Maximum altitude 04:32:42 79° 102° (ESE) 504 6.8 -7.0°
Drops below altitude 10° 04:36:20 10° 190° (S) 1,681 9.2 -6.4°
Sets 04:38:24 0° 191° (SSW) 2,563 10.1 -6.0°
